Miscellaneous Local Product
Issued by NWS Hastings, NE

Home | Current Version | Previous Version | Graphics & Text | Print | Product List | Glossary On
Versions: 1 2 3 4 5 6 7 8 9 10 11 12 13 14 15 16 17 18 19 20 21 22 23 24 25 26 27 28 29 30 31 32 33 34 35 36 37 38 39 40 41 42 43 44 45 46 47 48 49 50
000
AXUS43 KGID 301002
MISGRI

GID CWA HOURLY WEATHER ROUNDUP
NATIONAL WEATHER SERVICE HASTINGS NE
500 AM CDT WED JUL 30 2014

NOTE: "FAIR" INDICATES FEW OR NO CLOUDS BELOW 12,000 FEET WITH NO
SIGNIFICANT WEATHER AND/OR OBSTRUCTIONS TO VISIBILITY.

...SOUTH CENTRAL NEBRASKA...

CITY           SKY/WX    TMP DP  RH WIND       PRES   REMARKS
GRAND ISLAND   MOCLDY    62  57  83 CALM      30.16S
HASTINGS       CLOUDY    64  53  67 SE5       30.15S
KEARNEY        MOCLDY    63  57  82 CALM      30.17R
ORD            PTCLDY    54  53  97 SW5       30.16R
YORK           MOCLDY    59  59 100 N3        30.15S
AURORA         CLOUDY    60  59  96 CALM      30.16R
LEXINGTON      CLOUDY    64  61  88 CALM      30.17S
HOLDREGE       CLOUDY    63  57  81 CALM      30.16S
HEBRON         CLOUDY    64  57  79 CALM      30.14S

...NEBRASKA PANHANDLE...

CITY           SKY/WX    TMP DP  RH WIND       PRES   REMARKS
CHADRON        MOCLDY    53  52  96 CALM      30.23S
ALLIANCE       CLOUDY    62  53  72 CALM      30.24S
SCOTTSBLUFF    CLOUDY    63  58  83 CALM      30.25R
SIDNEY         CLOUDY    62  60  93 CALM      30.25S

...WESTERN AND NORTH CENTRAL NEBRASKA...

CITY           SKY/WX    TMP DP  RH WIND       PRES   REMARKS
VALENTINE      CLEAR     51  48  89 CALM      30.19S
AINSWORTH      CLEAR     52  49  92 W5        30.18S
ONEILL         CLEAR     55  53  90 CALM      30.17R
BROKEN BOW     PTCLDY    56  54  93 N3        30.18R
IMPERIAL       CLOUDY    62  60  93 NE5       30.20R
NORTH PLATTE   CLOUDY    64  60  87 CALM      30.19R
MCCOOK         CLOUDY    63  61  93 E5        30.17S

...EASTERN NEBRASKA...

CITY           SKY/WX    TMP DP  RH WIND       PRES   REMARKS
NORFOLK        PTCLDY    54  52  93 SW3       30.15R
SO SIOUX CITY  CLEAR     52  51  97 W3        30.14R
TEKAMAH        CLEAR     51  48  89 CALM      30.13R
ALBION         CLEAR     52  51  93 CALM      30.17R
OMAHA EPPLEY   PTCLDY    56  54  93 N3        30.13R
MILLARD        PTCLDY    58  56  94 CALM      30.12S
LINCOLN        PTCLDY    58  54  86 N3        30.14R
NEBRASKA CITY  PTCLDY    60  56  86 N3        30.13R
BEATRICE       MOCLDY    60  58  91 CALM      30.14R
FALLS CITY     MOCLDY    62  57  83 CALM      30.12R

...NORTHERN KANSAS...

CITY           SKY/WX    TMP DP  RH WIND       PRES   REMARKS
GOODLAND       CLOUDY    62  60  93 NE14      30.16R
HILL CITY      CLOUDY    68  54  60 E12       30.13S
NORTON         HVY RAIN  61  57  88 E8        30.14F
PHILLIPSBURG   LGT RAIN  63  63 100 NE6       30.14S
SMITH CENTER   CLOUDY    63  61  94 E8        30.13S
HAYS           CLOUDY    68  55  64 NE14      30.10S
RUSSELL        CLOUDY    69  58  67 E14       30.09S
CONCORDIA      LGT RAIN  64  63  96 SE5       30.11F
SALINA         CLOUDY    72  59  63 NE9       30.11R
TOPEKA         CLOUDY    69  63  81 N3        30.10S



USA.gov is the U.S. government's official web portal to all federal, state and local government web resources and services.